Home > Weather > Schwabach > Past weeks

Flag for Germany Weather for the Past 2 Weeks in Schwabach, Bavaria, Germany

Now
59 °F

Scattered clouds.


Feels Like: 57 °F
Forecast: 44 / 64 °F
Wind: 10 mph from East

Location: Nuernberg

Current Time: May 1, 2016 at 10:53:45 AM

Latest Report: May 1, 2016 at 10:20 AM


Visibility: N/A

Pressure: 30.01 "Hg

Humidity: 45%

Dew Point: 37 °F

Location of SchwabachLocation

Historic Weather in Schwabach — Graph

°F

Schwabach Temperature Yesterday

Maximum temperature yesterday: 64 °F (at 1:20 PM)
Minimum temperature yesterday: 32 °F (at 5:20 AM)
Average temperature yesterday: 51 °F

High & Low Weather Summary for the Past Weeks

 TemperatureHumidityPressure
High66 °F (Apr 21, 3:50 PM)100% (Apr 18, 6:50 AM)30.42 "Hg (Apr 18, 6:50 AM)
Low28 °F (Apr 29, 5:20 AM)22% (Apr 21, 4:20 PM)29.50 "Hg (Apr 26, 6:50 AM)
Average45 °F70%29.96 "Hg
* Reported Apr 16 8:20 AM — May 1 8:50 AM, Schwabach, Weather by CustomWeather, © 2016

Note: Actual official high and low records may vary slightly from our data, if they occured in-between our weather recording intervals... More about our weather records

Advertising

Schwabach Weather History for the Previous 24 Hours

Scroll right to see more
 ConditionsComfort  
Time TempWeatherWind HumidityBarometerVisibility
8:50 AM
Sun, May 1
55 °FPassing clouds.8 mph55%29.98 "HgN/A
8:20 AM52 °FPassing clouds.8 mph58%29.98 "HgN/A
7:50 AM52 °FSunny.8 mph58%29.98 "Hg10 mi
7:20 AM50 °FSunny.7 mph58%29.95 "Hg10 mi
6:20 AM50 °FPassing clouds.8 mph54%29.92 "HgN/A
5:50 AM50 °FPassing clouds.9 mph54%29.92 "HgN/A
5:20 AM50 °FClear.8 mph54%29.92 "Hg10 mi
4:20 AM50 °FClear.5 mph54%29.92 "Hg10 mi
3:50 AM52 °FClear.5 mph47%29.92 "Hg10 mi
3:20 AM52 °FClear.5 mph47%29.92 "Hg10 mi
2:50 AM52 °FPassing clouds.5 mph50%29.92 "HgN/A
2:20 AM52 °FPassing clouds.7 mph50%29.89 "HgN/A
1:50 AM54 °FPassing clouds.8 mph44%29.89 "HgN/A
1:20 AM54 °FClear.8 mph47%29.89 "Hg10 mi
12:50 AM54 °FPassing clouds.7 mph47%29.89 "HgN/A
12:20 AM55 °FPassing clouds.9 mph44%29.92 "HgN/A
11:50 PM
Sat, Apr 30
55 °FPassing clouds.10 mph44%29.89 "HgN/A
11:20 PM54 °FPassing clouds.9 mph47%29.89 "HgN/A
10:50 PM54 °FPassing clouds.7 mph47%29.89 "HgN/A
10:20 PM54 °FPassing clouds.3 mph51%29.92 "HgN/A
9:50 PM54 °FClear.2 mph54%29.92 "Hg10 mi
9:20 PM55 °FSunny.2 mph51%29.92 "Hg10 mi
8:50 PM55 °FPassing clouds.5 mph51%29.92 "HgN/A
8:20 PM57 °FPassing clouds.5 mph44%29.92 "HgN/A
7:50 PM59 °FSunny.5 mph42%29.92 "Hg10 mi
7:20 PM61 °FPassing clouds.5 mph36%29.92 "HgN/A
6:50 PM63 °FPassing clouds.6 mph34%29.92 "HgN/A
6:20 PM63 °FPassing clouds.5 mph34%29.92 "HgN/A
5:50 PM64 °FPassing clouds.3 mph30%29.92 "HgN/A
5:20 PM64 °FSunny.2 mph30%29.92 "Hg10 mi
4:50 PM64 °FPassing clouds.3 mph30%29.92 "HgN/A
4:20 PM64 °FPassing clouds.3 mph30%29.95 "HgN/A
3:50 PM63 °FPassing clouds.5 mph34%29.95 "HgN/A
3:20 PM64 °FPassing clouds.6 mph28%29.95 "HgN/A
2:50 PM64 °FPassing clouds.7 mph28%29.95 "HgN/A
2:20 PM64 °FSunny.5 mph32%29.95 "Hg10 mi
1:50 PM63 °FPassing clouds.8 mph32%29.95 "HgN/A
1:20 PM64 °FPassing clouds.7 mph32%29.98 "HgN/A
12:50 PM63 °FSunny.6 mph32%29.98 "Hg10 mi
12:20 PM63 °FSunny.5 mph34%29.98 "Hg10 mi
11:20 AM57 °FSunny.3 mph41%30.01 "Hg10 mi
10:20 AM55 °FSunny.2 mph47%30.04 "Hg10 mi
Weather by CustomWeather, © 2016

See weather overviewHow to use our weather pages